Content
SEND FEEDBACK

Daily
Averages
Monthly
Summary
Germany

LUBECK, GERMANY


Home > Europe > Germany
Elevation: 56 feet     Latitude: 54 00N     Longitude: 011 12E

WEATHER
 
SELECT A DAY
Number of Records: 59,156;   Date Range: 7/3/96 - 8/20/14
 
SHARE

PRINT THIS DATA

[ ← Previous Day ]
WEATHER ALMANAC - APRIL 21, 2013
[ Next Day → ]
[ °C ]   °F
Weather ElementAverageHighLow
Temperature52 °F59 °F (2:20 pm)33.8 °F (6:50 am)
Dewpoint35.7 °F39.2 °F (9:20 am)30.2 °F (5:20 pm)
Humidity57.2 %100 % (6:50 am)34 % (5:20 pm)
Barometer30.17 in30.30 in (6:50 am)30.04 in (6:50 pm)
Wind Speed9 mph13.8 mph (5:20 pm)
Weather ElementAverage
Wind DirectionESE (98.6 °)

Weather ElementTotal
Precipitation---
Heating Degree Days18.6 (Base 65)
Averaged from 29 records on April 21, 2013
WEATHER CONDITIONS BREAKOUT
WIND DIRECTION BREAKOUT
WEATHER BY HOUR - APRIL 21, 2013
[ °C ]   °F
Local TimeTemperatureDewpointHumidityBarometerVisibilityWind DirectionWind SpeedGust SpeedPrecipitationEventsConditions
6:50 AM33.8 °F33.8 °F100 %30.30 inEast (80°)2.3 mphClear
7:20 AM35.6 °F35.6 °F100 %30.30 inEast (100°)2.3 mphClear
7:50 AM37.4 °F37.4 °F100 %30.30 inEast (90°)4.6 mphClear
8:20 AM41.0 °F37.4 °F87 %30.30 inEast (100°)9.2 mphClear
8:50 AM42.8 °F37.4 °F81 %30.30 inEast (100°)10.4 mphClear
9:20 AM46.4 °F39.2 °F76 %30.27 inESE (120°)8.1 mphClear
9:50 AM48.2 °F37.4 °F66 %30.27 inESE (110°)5.8 mphClear
10:20 AM48.2 °F37.4 °F66 %30.27 inESE (110°)6.9 mphClear
10:50 AM50.0 °F39.2 °F66 %30.24 inEast (100°)6.9 mphClear
11:20 AM53.6 °F39.2 °F58 %30.24 inSE (130°)9.2 mphClear
11:50 AM53.6 °F39.2 °F58 %30.24 inSE (130°)10.4 mphClear
12:20 PM55.4 °F37.4 °F51 %30.21 inSE (130°)9.2 mphClear
12:50 PM55.4 °F37.4 °F51 %30.21 inSE (130°)10.4 mphClear
1:20 PM57.2 °F33.8 °F41 %30.18 inSE (130°)11.5 mphClear
1:50 PM57.2 °F33.8 °F41 %30.18 inESE (120°)12.7 mphClear
2:20 PM59.0 °F33.8 °F39 %30.15 inSE (130°)12.7 mphClear
2:50 PM59.0 °F32.0 °F36 %30.15 inSE (140°)11.5 mphClear
3:20 PM59.0 °F35.6 °F42 %30.12 inSE (140°)10.4 mphClear
3:50 PM59.0 °F35.6 °F42 %30.12 inEast (90°)12.7 mphClear
4:20 PM59.0 °F32.0 °F36 %30.09 inEast (100°)12.7 mphClear
4:50 PM59.0 °F33.8 °F39 %30.09 inEast (90°)12.7 mphClear
5:20 PM59.0 °F30.2 °F34 %30.06 inEast (80°)13.8 mphClear
5:50 PM59.0 °F32.0 °F36 %30.06 inEast (90°)12.7 mphClear
6:20 PM57.2 °F32.0 °F38 %30.06 inEast (90°)10.4 mphClear
6:50 PM55.4 °F35.6 °F47 %30.04 inNE (50°)9.2 mphClear
7:20 PM53.6 °F35.6 °F51 %30.04 inNNE (30°)6.9 mphClear
7:50 PM51.8 °F37.4 °F58 %30.04 inNE (50°)5.8 mphClear
8:20 PM51.8 °F37.4 °F58 %30.04 inNE (50°)4.6 mphClear
8:50 PM50.0 °F37.4 °F62 %30.04 inNE (50°)4.6 mphClear
Hourly data recorded from EDHL, located miles away from Lubeck, Germany







STORIES FROM OUR PARTNERS